Hourly Data Report for September 30, 2017

All times are specified in Local Standard Time (LST). Add 1 hour to adjust for Daylight Saving Time where and when it is observed.

KUGAARUK CLIMATE
NUNAVUT

68°32'15.060" N
89°47'47.020" W
15.80 m
2303094
71407
NBB

Download Data

Hourly Data (September 2017)
Hourly Data Report for September 30, 2017
Temp Definition
°C
Dew Point Temp Definition
°C
Rel Hum Definition
%
Wind Dir Definition
10's deg

Wind Spd Definition
km/h
Visibility Definition
km
Stn Press Definition
kPa
Hmdx Definition


Wind Chill Definition


Weather Definition


TIME
00:00 -3.4 -7.0 76 3 32   100.33   -11 LegendNANA
01:00 -4.3 -8.1 75 3 28   100.48   -12 LegendNANA
02:00 -4.2 -7.3 79 2 29   100.59   -12 LegendNANA
03:00 -5.9 -8.5 82 2 23   100.73   -13 LegendNANA
04:00 -6.3 -9.0 82 2 18   100.85   -13 LegendNANA
05:00 -6.9 -9.3 83 2 16   100.93   -13 LegendNANA
06:00 -7.2 -9.6 83 1 6   101.01   -10 LegendNANA
07:00 -5.5 -9.1 76   0   101.09     LegendNANA
08:00 -3.9 -8.0 74 6 6   101.14   -7 LegendNANA
09:00 -2.5 -6.7 73 36 25   101.22   -9 LegendNANA
10:00 -2.6 -7.4 69 3 23   101.30   -9 LegendNANA
11:00 -2.1 -6.8 70 36 22   101.40   -8 LegendNANA
12:00 -1.8 -5.3 77 36 22   101.47   -8 LegendNANA
13:00 -1.8 -6.2 72 35 21   101.55   -8 LegendNANA
14:00 -2.1 -5.2 79 35 17   101.60   -7 LegendNANA
15:00 -1.6 -4.5 81 36 14   101.64   -6 LegendNANA
16:00 -2.2 -4.2 86 33 20   101.73   -8 LegendNANA
17:00 -2.3 -4.7 83 32 19   101.77   -8 LegendNANA
18:00 -2.9 -5.3 84 32 14   101.81   -8 LegendNANA
19:00 -3.3 -5.2 87 31 14   101.86   -8 LegendNANA
20:00 -3.4 -5.0 88 28 18   101.88   -9 LegendNANA
21:00 -4.0 -5.5 89 27 18   101.90   -10 LegendNANA
22:00 -4.7 -5.9 92 25 18   101.92   -11 LegendNANA
23:00 -4.8 -5.9 92 26 20   101.91   -11 LegendNANA

Notes on Data Quality.

Legend

  • E = Estimated
  • M = Missing
  • NA = Not Available
  • ‡ = Partner data that is not subject to review by the National Climate Archives
Date modified: